CAPE
1699 882 733 215 490 542 0 2 2 3 37 119 355 460 546 506 175 13 95 15 428 697 734 751 1081 1120 794 958 1409 1592 1690 1517 1718 1884 2263 2491 2780 2767 2142 1998 2200 2036 1719 1327 1417 1759 1882 1649 1372
1741 1113 80 249 43 0 8 44 84 25 103 149 211 345 385 445 444 116 173 307 409 860 815 838 1445 1045 1031 818 1553 1860 1498 1596 1965 2233 2420 2480 2711 2835 2103 1831 2047 2034 1223 1197 1175 1167 1399 1442 1314
1486 1087 41 117 137 39 94 214 236 66 84 129 250 343 442 502 472 306 70 195 398 659 851 713 1333 1091 999 1125 1589 2050 2237 1855 2322 2541 2543 2589 2662 2496 1834 1523 1505 1576 1523 1184 1106 811 1162 1527 1477
278 411 120 87 56 149 59 43 218 156 110 162 339 402 466 511 380 378 103 33 321 923 1200 1800 2080 1541 1149 979 1945 2479 2301 2455 2561 2673 2494 2708 2530 2270 1971 1818 1733 1726 1649 1473 1143 717 747 1272 1257
273 128 13 81 142 196 90 115 252 273 163 395 447 596 478 370 347 333 84 21 331 1020 1615 1922 2338 2255 2396 2204 2195 2798 2315 2597 2872 2577 2473 2605 2672 2278 2142 1739 1779 1566 1676 1648 1372 837 869 1157 1333
122 518 221 155 170 280 183 210 301 118 241 372 682 559 398 396 319 222 126 185 715 1250 1680 2091 2705 2678 2395 2103 2226 2261 2363 2609 2893 2923 2796 2599 2149 1997 2103 2096 1766 1683 1697 1552 1707 1129 745 1281 1269
286 165 274 365 315 97 204 205 450 206 304 336 420 528 496 487 414 454 696 743 886 1348 1568 1716 2251 2174 2299 2207 2253 2935 2891 2943 2993 2858 3014 2550 2092 1917 1813 1707 1823 1507 1452 1671 1615 1285 910 661 835
676 408 424 436 107 68 200 231 281 168 342 372 426 530 525 598 409 1059 1188 997 883 1207 1722 2000 1889 1995 2181 2183 2912 3086 2937 2889 2611 2345 1936 1965 1887 1816 1898 2492 2397 1497 1636 1401 1380 1294 1218 899 933
493 549 484 156 47 22 26 47 98 276 308 503 566 419 371 349 923 1050 1060 1135 1153 1503 1708 2046 1961 2188 2340 2132 2205 3044 2887 2710 2513 1780 1888 2466 1536 1681 1621 1693 1809 1712 1405 1655 1746 1279 1175 1406 1265
75 53 67 1 3 6 0 17 83 282 573 781 258 332 410 702 756 845 915 1084 1227 1273 1413 1699 1870 2072 2292 2263 2276 2419 1992 2050 1958 1975 1863 1763 1392 1586 1366 1853 1826 1796 1555 1555 1597 1399 1107 1180 925
0 8 3 0 0 0 0 0 624 522 694 704 186 273 379 521 620 679 762 725 939 1026 1205 1320 1426 1547 1809 1781 1867 1835 1922 1992 1859 1734 1596 1549 1185 1115 1355 1423 1563 1433 1632 1387 1719 1593 1008 998 1063
0 0 0 0 0 0 0 0 168 874 680 437 198 217 319 604 489 466 591 710 659 756 966 1122 1225 1393 1712 1591 1770 1601 1777 1881 1660 1670 1304 1333 1088 1043 1092 1163 1364 1110 1350 1134 1401 1193 973 472 603
0 0 0 0 0 0 0 0 0 261 633 293 173 183 196 513 665 629 735 645 542 476 665 931 1134 1373 1547 1495 1453 1474 1611 1811 1534 1598 1372 1195 1021 823 735 1083 1173 1015 1065 1055 958 871 713 496 253
0 0 0 0 0 0 0 0 0 538 491 322 167 137 134 135 552 758 802 820 702 655 781 723 977 1160 1348 1507 1223 1296 1250 1205 1177 1510 1416 1546 1095 836 838 889 1026 1094 1075 992 967 963 650 573 277
0 0 0 0 0 0 0 0 0 438 585 328 146 80 135 191 220 316 651 974 953 869 959 973 1038 1106 1010 1587 1332 871 908 1235 1377 1461 1565 1516 1473 924 1042 1031 817 1211 1042 1043 956 515 608 531 449
0 0 0 0 0 0 0 0 0 379 489 526 334 267 341 421 580 497 600 750 928 879 1271 1443 1511 1438 1232 1736 1596 1363 1240 1464 1265 1265 1572 1511 1651 1303 1307 1136 1001 815 548 616 712 386 704 633 427
0 0 0 0 0 0 0 0 0 0 304 418 684 563 588 688 966 849 876 778 613 1021 1461 1550 1561 1554 1552 1775 1826 1725 1438 1514 1568 1426 1582 1443 1409 1553 1259 1205 1057 598 546 627 610 479 554 693 287
0 0 0 0 0 0 0 0 0 0 6 521 485 763 891 1031 1065 1058 869 739 689 1425 1555 1557 1557 1658 1749 1535 2167 1930 1751 1248 1561 1714 1827 1736 1254 1215 1202 1046 947 803 925 771 670 536 456 575 589
0 0 0 0 0 0 0 0 0 0 548 654 852 887 953 1158 1215 1009 1090 940 790 1078 1706 1754 1697 1750 1872 1624 1826 1540 1357 1371 1360 1343 1718 1787 1354 1189 1113 1055 1133 954 987 1080 883 532 642 478 409
0 0 0 0 0 0 0 0 0 24 268 984 1177 1028 1126 1317 1221 1191 1254 1170 1155 948 1562 1823 1738 1743 2049 1798 1693 1444 1326 1236 1341 1440 1403 1738 1684 1679 1303 1180 1145 1166 1162 1419 1228 1072 1013 477 431
0 0 0 0 0 0 0 0 0 263 873 1399 1496 1629 1741 1821 1719 1615 1532 1499 1527 1230 1657 1858 1866 1763 1895 1716 1679 1709 1594 1537 1341 1321 1499 1529 1713 1628 1755 1421 1224 1368 1404 1141 994 1189 926 614 720
0 0 0 0 0 0 0 0 0 252 1174 1560 1870 1921 1923 1915 2026 2120 2000 1863 1745 1843 1567 1927 1834 1678 1639 1986 1857 1803 1706 1669 1653 1576 1316 1383 1842 1919 1775 1546 1401 1263 1419 960 1019 1077 1183 885 840
0 0 0 0 0 0 0 0 0 40 658 1569 1944 1911 1867 1850 1892 2015 2118 2077 1968 2012 2210 1846 2436 2091 1998 1990 2302 2133 1959 1903 1883 1975 2044 1884 1657 2049 1986 1758 1535 1296 985 969 865 1215 1280 1261 1044
0 0 0 0 0 0 0 0 0 2 153 427 872 1550 1903 1947 1942 1886 2410 2350 2352 2539 2712 2628 2681 2800 2492 2448 2422 2401 2465 2427 2336 2283 2140 2132 2184 2131 2110 1959 1796 1641 1520 1314 1179 1161 1436 1546 1588
0 0 0 0 0 0 0 0 0 0 31 149 370 847 1229 1658 1797 1884 1636 2040 2209 2280 2659 3079 2658 2648 2860 3037 2863 2678 2592 2644 2679 2669 2519 2470 2332 2170 2149 1989 1921 1766 1641 1569 1455 1414 1471 1588 1713
0 0 0 0 0 0 0 0 0 0 82 250 328 448 754 850 773 924 890 882 815 822 904 1191 2172 1999 2390 3133 3341 3270 3100 2809 2705 2736 2800 2723 2498 2480 2373 2045 1814 1766 1505 1398 1428 1403 1296 1530 1702
0 0 0 0 0 0 0 1 1 100 207 124 266 375 477 582 820 933 881 925 940 895 796 820 881 872 1043 1236 1334 1526 2127 2463 2588 2478 2425 2489 2592 2564 2572 2362 2135 1947 1932 2027 1428 1472 1318 1207 1495
0 0 0 0 0 0 0 0 4 21 18 21 173 540 716 849 895 965 841 741 641 638 681 752 814 1044 1150 1295 1386 1524 1732 2049 2219 2208 2160 2129 2324 2387 2332 2454 2446 2419 2244 2059 1738 1563 1647 1621 1433
0 0 0 0 0 0 0 1 1 8 0 19 28 12 2 9 81 216 292 398 446 421 354 292 359 494 826 1154 1413 1457 1595 1424 1551 1684 1669 1783 1819 1998 2239 2373 2442 2403 2343 2496 2242 1731 1643 1629 1692
0 0 0 0 0 0 0 0 20 1 3 0 1 4 51 68 93 122 152 181 181 182 246 382 455 552 815 722 870 918 1116 969 890 880 1052 1181 1328 1588 1773 1967 2175 2269 2042 2129 2025 1612 1723 1719 1767
CIN
-188 -313 -401 -75 -202 -106 0 -58 -23 -17 -124 -166 -170 -138 -131 -118 -98 -205 -118 -28 -20 0 0 0 0 0 -1 0 0 0 0 0 0 0 0 0 0 0 0 0 0 0 0 0 0 0 0 0 0
-128 -284 -265 -413 -277 -8 -70 -91 -148 -154 -157 -190 -193 -132 -149 -92 -136 -178 -118 -58 -48 -1 0 -1 0 -5 0 -7 0 0 0 0 0 0 0 0 0 0 0 0 0 0 0 0 0 0 0 0 -1
-207 -233 -138 -376 -128 -130 -29 -113 -138 -138 -151 -137 -239 -185 -130 -90 -99 -104 -149 -77 -58 -17 -11 -12 -1 -2 -3 -1 0 0 0 0 0 0 0 0 0 0 0 0 0 0 0 0 0 -7 -4 0 0
-416 -486 -86 -79 -60 -125 -107 -295 -100 -115 -148 -139 -203 -234 -141 -64 -102 -81 -139 -138 -80 -16 -14 0 0 0 0 -2 0 0 0 0 0 0 0 0 0 0 0 0 0 0 0 0 -4 -17 -18 0 -3
-607 -616 -299 -48 -132 -205 -31 -257 -109 -187 -177 -187 -226 -202 -128 -48 -121 -143 -170 -175 -92 -26 0 0 0 0 0 0 0 0 0 0 0 0 0 0 0 0 0 0 0 0 0 0 -1 -27 -27 -11 -5
-501 -324 -233 -221 -132 -170 -28 -205 -209 -17 -269 -243 -247 -251 -136 -109 -159 -182 -169 -108 -84 -38 -1 0 0 0 0 0 0 0 0 0 0 0 0 0 0 0 0 0 0 0 0 0 0 -17 -37 -12 -19
-37 -333 -208 -186 -141 -40 -76 -156 -196 -33 -45 -214 -255 -300 -217 -140 -161 -100 -89 -106 -86 -43 -18 -1 0 0 0 0 0 0 0 0 0 0 0 0 0 0 0 -2 0 0 -1 0 0 -11 -39 -41 -37
-60 -62 -101 -75 -70 -12 -31 -66 -150 -44 -47 -252 -239 -286 -288 -220 -194 -90 -82 -101 -106 -65 -22 -2 -2 -5 0 -1 0 0 0 0 0 0 -1 0 0 0 0 0 0 -1 0 -2 -5 -12 -26 -44 -40
-101 -82 -87 -57 -11 -18 -55 -80 -83 -47 -200 -31 -121 -267 -315 -283 -166 -115 -76 -58 -59 -46 -36 -1 -3 -1 0 -1 0 0 0 0 0 -6 -1 0 -8 0 0 -6 -1 0 -2 0 0 -25 -34 -31 -35
-205 -75 -45 -1 -14 -7 0 -42 -24 -114 -41 -84 -168 -237 -281 -316 -253 -202 -135 -80 -72 -72 -64 -41 -16 -3 -1 0 0 -1 -1 -1 -2 -6 -4 -7 -17 -5 -5 -5 0 0 0 0 -3 -25 -46 -42 -68
0 -64 -4 0 0 0 0 0 -88 -29 -44 -78 -328 -285 -325 -352 -290 -248 -201 -172 -155 -143 -107 -95 -84 -54 -31 -34 -11 -3 0 0 -5 -17 -19 -13 -15 -22 -5 -6 -2 -6 -3 -4 -2 -15 -56 -60 -71
0 0 0 0 0 0 0 0 -53 -75 -66 -89 -139 -296 -334 -375 -372 -274 -236 -55 -180 -163 -156 -146 -134 -116 -72 -91 -60 -56 -18 -2 -22 -30 -52 -45 -52 -36 -19 -21 -17 -28 -12 -25 -18 -29 -51 -98 -90
0 0 0 0 0 0 0 0 0 -88 -82 -88 -141 -319 -301 -321 -350 -224 -149 -82 -234 -231 -173 -176 -154 -131 -105 -130 -119 -99 -71 -46 -66 -52 -76 -84 -53 -59 -80 -48 -29 -37 -28 -29 -41 -49 -64 -89 -112
0 0 0 0 0 0 0 0 0 -87 -54 -85 -133 -292 -287 -297 -306 -255 -200 -241 -173 -213 -80 -191 -178 -156 -123 -114 -162 -146 -137 -139 -125 -81 -96 -88 -71 -72 -103 -39 -59 -45 -45 -42 -45 -38 -52 -60 -73
0 0 0 0 0 0 0 0 0 -110 -65 -97 -171 -153 -67 -42 -44 -248 -277 -256 -204 -192 -152 -183 -196 -181 -154 -126 -127 -201 -190 -147 -105 -110 -75 -101 -78 -145 -110 -80 -109 -64 -46 -34 -28 -38 -49 -39 -34
0 0 0 0 0 0 0 0 0 -117 -88 -58 -56 -64 -61 -56 -34 -48 -44 -233 -202 -210 -185 -163 -137 -147 -158 -114 -107 -78 -140 -95 -109 -123 -78 -83 -73 -105 -89 -103 -95 -103 -115 -102 -49 -56 -55 -37 -32
0 0 0 0 0 0 0 0 0 0 -156 -109 -61 -52 -38 -27 -32 -26 -42 -45 -193 -287 -235 -200 -145 -154 -140 -126 -89 -86 -71 -43 -65 -101 -99 -91 -102 -51 -85 -86 -107 -192 -182 -115 -83 -51 -56 -20 -47
0 0 0 0 0 0 0 0 0 0 -53 -114 -89 -49 -30 -29 -18 -24 -41 -42 -57 -213 -220 -206 -176 -164 -131 -124 -67 -52 -29 -79 -64 -75 -80 -62 -83 -100 -105 -112 -113 -155 -154 -145 -103 -71 -66 -33 -13
0 0 0 0 0 0 0 0 0 0 -81 -151 -77 -48 -35 -17 -35 -33 -302 -31 -48 -247 -165 -160 -166 -169 -135 -150 -73 -90 -103 -88 -89 -71 -104 -76 -45 -135 -127 -114 -85 -129 -123 -91 -92 -77 -62 -72 -51
0 0 0 0 0 0 0 0 0 -152 -143 -119 -144 -85 -74 -121 -44 -98 -277 -36 -28 -221 -159 -112 -106 -159 -116 -120 -82 -122 -130 -137 -122 -66 -72 -49 -78 -109 -117 -111 -91 -51 -66 -38 -42 -35 -43 -73 -141
0 0 0 0 0 0 0 0 0 -83 -126 -92 -108 -94 -72 -67 -33 -72 -36 -32 -29 -29 -161 -185 -101 -116 -81 -173 -128 -136 -158 -151 -161 -152 -91 -190 -72 -96 -79 -87 -85 -50 -29 -34 -70 -29 -29 -62 -93
0 0 0 0 0 0 0 0 0 -107 -82 -65 -66 -51 -45 -40 -58 -37 -39 -43 -22 -6 -189 -140 -156 -129 -157 -144 -120 -118 -130 -141 -144 -109 -113 -74 -138 -82 -40 -60 -63 -56 -29 -47 -55 -59 -33 -25 -25
0 0 0 0 0 0 0 0 0 -221 -87 -78 -78 -60 -59 -58 -72 -71 -67 -118 -108 -99 -131 -136 -135 -120 -123 -119 -82 -72 -76 -90 -77 -48 -31 -27 -20 -79 -55 -45 -92 -36 -90 -65 -141 -37 -70 -24 -17
0 0 0 0 0 0 0 0 0 -60 -176 -141 -120 -91 -64 -48 -34 -41 -58 -80 -88 -83 -82 -91 -86 -80 -34 -1 -1 -43 -45 -38 -29 -15 -29 -26 -19 -15 -4 -52 -41 -89 -73 -61 -103 -73 -21 -52 -18
0 0 0 0 0 0 0 0 0 0 -171 -141 -162 -123 -98 -62 -18 -13 -21 -45 -36 -42 -79 -86 -89 -53 -39 -28 -36 -2 -17 -4 -14 -10 -14 -13 -8 -12 -11 -4 -36 -63 -60 -98 -73 -64 -59 -44 -43
0 0 0 0 0 0 0 0 0 0 -123 -86 -86 -110 -103 -91 -113 -80 -61 -46 -52 -62 -74 -142 -100 -77 -83 -60 -39 -29 -37 -23 -16 -10 -3 -3 -8 -7 -4 -4 -20 -10 -52 -67 -66 -54 -54 -39 -25
0 0 0 0 0 0 0 -45 -6 -53 -66 -101 -89 -88 -93 -65 -86 -67 -55 -40 -32 -28 -40 -41 -86 -92 -95 -98 -78 -64 -91 -69 -35 -38 -30 -25 -12 -10 -7 -10 -10 -13 -5 0 -34 -48 -56 -45 -30
0 0 0 0 0 0 0 0 -20 -35 -39 -83 -90 -86 -72 -63 -57 -55 -63 -59 -65 -65 -69 -48 -43 -52 -54 -62 -62 -70 -52 -39 -37 -45 -60 -42 -27 -21 -18 -10 -8 -4 -4 -3 -1 -23 -49 -34 -30
0 0 0 0 0 0 0 -2 -16 -24 -5 -88 -55 -59 -47 -130 -131 -106 -82 -78 -79 -68 -51 -104 -109 -89 -80 -66 -44 -31 -29 -23 -81 -46 -34 -37 -44 -45 -29 -24 -9 -2 0 0 0 -24 -12 -33 -33
0 0 0 0 0 0 0 0 -12 -8 -14 0 -2 -6 -158 -130 -110 -115 -100 -195 -74 -104 -159 -125 -102 -126 -84 -106 -93 -94 -91 -131 -138 -111 -67 -51 -72 -55 -44 -30 -23 -8 -2 0 0 -1 -10 -14 -19
Wind_Speed
14 17 22 22 15 11 nan nan nan nan nan 21 13 19 21 4 7 nan nan nan 22 15 11 10 19 15 14 20 24 23 16 14 13 15 12 10 13 12 9 9 10 11 12 11 10 10 8 7 7
1 2 nan 19 nan nan nan nan nan nan 29 28 22 20 13 16 9 18 14 17 14 15 12 9 12 17 16 23 29 21 18 15 13 13 16 10 14 11 10 10 8 9 11 12 11 9 8 8 7
25 16 nan 20 17 nan nan 13 25 nan nan 22 21 22 17 15 20 17 nan 21 18 12 9 13 17 16 11 14 18 25 23 17 15 17 15 15 15 10 10 11 10 7 9 10 11 10 9 8 6
25 21 22 nan nan 29 nan nan 31 23 22 24 19 17 23 20 21 18 22 nan 19 13 13 17 13 13 11 7 10 23 18 18 18 17 13 14 10 10 9 8 7 7 8 10 10 10 8 8 7
18 22 nan nan 29 31 nan 40 37 29 23 21 20 23 23 27 26 32 nan nan 18 16 14 14 12 11 11 6 0 10 20 23 25 22 15 13 11 9 7 8 9 9 8 9 10 9 9 7 5
23 23 26 29 26 39 41 38 28 25 23 26 24 23 26 37 35 30 26 21 20 17 13 14 15 7 6 7 9 12 10 16 30 20 14 12 9 7 8 8 8 9 10 10 10 9 10 10 8
23 23 31 29 26 nan 37 26 26 20 23 26 24 23 28 38 37 35 28 25 22 18 16 17 13 3 5 5 10 10 11 13 20 19 11 8 8 8 8 8 8 10 11 10 11 10 9 11 11
12 24 34 32 15 nan 19 20 24 30 25 28 33 26 34 35 35 33 29 24 23 21 17 21 18 10 4 2 7 8 7 11 13 14 13 13 11 10 8 9 9 10 10 11 9 9 9 10 11
17 24 29 22 nan nan nan nan nan 16 29 23 26 32 36 35 32 29 27 26 26 23 20 16 20 11 7 4 6 8 10 11 15 12 8 10 13 11 9 8 8 10 10 9 8 8 9 9 9
nan nan nan nan nan nan nan nan nan 17 34 19 26 29 29 33 31 31 31 30 31 30 25 22 20 20 8 7 3 2 2 4 8 15 15 15 15 13 12 9 7 8 9 9 8 8 8 9 10
nan nan nan nan nan nan nan nan 25 31 26 35 37 41 33 32 29 29 32 33 37 36 31 28 25 21 25 15 8 4 1 6 10 9 16 17 17 14 16 17 15 14 9 13 11 11 12 10 9
nan nan nan nan nan nan nan nan 27 26 28 39 39 43 35 33 29 30 30 31 32 36 38 35 28 24 21 18 19 12 2 6 9 9 11 16 18 18 15 17 15 16 15 12 12 12 12 10 9
nan nan nan nan nan nan nan nan nan 22 35 38 33 37 35 32 31 28 28 29 32 35 34 37 34 26 20 17 16 16 13 5 4 5 10 13 17 19 18 17 16 15 17 16 13 12 11 10 10
nan nan nan nan nan nan nan nan nan 21 37 41 42 37 35 36 35 26 25 26 32 34 31 32 34 31 24 19 16 14 13 12 5 2 3 6 7 14 13 20 15 12 13 15 14 12 12 9 10
nan nan nan nan nan nan nan nan nan 35 39 42 43 nan 35 31 34 29 25 25 27 29 30 31 29 28 29 24 18 14 10 7 6 5 6 8 7 5 10 16 15 14 14 13 13 14 13 12 10
nan nan nan nan nan nan nan nan nan 39 42 42 42 39 38 30 31 25 24 23 22 19 25 23 23 26 26 25 22 18 14 12 12 10 8 7 10 14 2 11 15 18 18 16 16 17 15 12 13
nan nan nan nan nan nan nan nan nan nan 40 40 41 42 38 32 25 22 21 18 20 18 16 17 19 21 23 21 19 18 19 19 18 15 12 9 10 11 10 9 9 18 22 21 18 16 15 16 15
nan nan nan nan nan nan nan nan nan nan nan 37 45 45 38 34 33 24 20 14 13 17 17 12 12 15 17 16 13 12 12 13 19 15 14 16 14 15 13 10 10 12 19 25 25 17 16 18 17
nan nan nan nan nan nan nan nan nan nan 15 25 34 38 36 35 28 25 21 24 20 16 15 14 14 12 12 10 10 9 8 8 13 16 20 15 16 19 21 18 13 15 17 13 19 25 19 22 22
nan nan nan nan nan nan nan nan nan nan 17 28 21 28 36 30 33 29 30 28 26 25 25 18 16 17 17 17 13 12 12 11 13 13 15 20 16 14 16 20 17 14 13 21 19 18 20 26 24
nan nan nan nan nan nan nan nan nan 10 23 21 13 18 36 37 38 34 34 32 31 24 23 25 24 22 20 21 21 20 17 16 18 16 13 18 22 20 20 17 18 18 19 15 23 22 19 21 22
nan nan nan nan nan nan nan nan nan 17 21 30 28 29 32 30 31 34 34 34 32 31 27 23 21 18 19 27 26 25 24 20 24 19 18 14 18 23 21 23 17 20 21 23 17 24 26 28 21
nan nan nan nan nan nan nan nan nan nan 23 26 28 35 32 30 35 30 31 29 25 21 21 17 24 21 21 25 27 27 25 25 23 23 22 19 22 17 20 17 20 17 21 16 18 16 19 23 27
nan nan nan nan nan nan nan nan nan nan 25 26 27 37 35 33 28 29 28 26 28 25 23 23 22 22 21 23 23 27 27 27 27 23 23 25 24 25 17 18 19 18 20 18 13 14 15 19 20
nan nan nan nan nan nan nan nan nan nan nan 31 38 39 36 32 33 29 28 24 25 29 28 27 28 24 24 25 26 26 27 30 30 32 33 28 24 24 24 23 21 19 22 19 18 12 14 15 14
nan nan nan nan nan nan nan nan nan nan nan 34 40 42 39 34 34 31 29 28 28 26 30 34 32 28 29 29 29 30 30 30 30 34 36 35 33 25 26 29 25 20 25 21 22 14 15 16 15
nan nan nan nan nan nan nan nan nan 25 28 39 40 43 42 39 38 32 25 26 28 28 24 21 23 32 33 31 31 32 35 37 37 37 41 41 36 32 26 28 30 27 28 23 19 17 16 17 16
nan nan nan nan nan nan nan nan nan nan nan nan 39 43 41 44 40 33 26 29 28 28 27 28 26 22 27 32 36 40 41 42 42 44 43 45 43 41 31 25 28 31 32 28 27 23 23 20 17
nan nan nan nan nan nan nan nan nan nan nan nan nan nan nan nan nan 47 39 35 35 35 35 38 38 36 34 35 35 35 36 40 43 46 46 46 46 44 41 31 29 32 37 37 33 28 32 27 22
nan nan nan nan nan nan nan nan nan nan nan nan nan nan nan nan nan 49 47 42 35 35 36 38 38 38 40 40 41 41 41 39 41 44 43 46 45 44 41 37 33 34 38 39 37 27 32 32 27
Wind_Direction
97 72 88 69 33 11 nan nan nan nan nan 46 9 358 349 10 347 nan nan nan 313 311 336 301 284 272 260 238 254 228 212 210 217 226 224 218 215 204 199 204 206 200 211 206 191 166 162 131 115
289 119 nan 85 nan nan nan nan nan nan 27 13 0 0 338 342 323 314 323 318 306 313 346 349 292 286 267 266 232 237 220 212 219 222 226 212 222 192 191 212 216 202 211 204 193 167 160 138 122
81 73 nan 74 62 nan nan 97 41 nan nan 37 8 345 1 2 346 352 nan 331 323 327 352 349 311 292 291 280 241 251 211 208 212 223 220 213 212 192 196 199 189 200 228 218 194 167 157 148 130
118 111 69 nan nan 61 nan nan 30 48 34 45 360 347 5 30 25 4 344 nan 335 342 19 349 329 306 284 318 241 243 234 234 217 216 222 219 213 201 190 209 209 206 223 229 211 173 163 154 149
106 109 nan nan 60 45 nan 25 20 40 21 339 2 8 12 41 9 358 nan nan 345 353 4 358 340 309 303 333 243 262 248 221 211 202 213 211 208 206 193 200 211 230 223 213 216 185 158 160 138
116 98 89 71 30 49 24 24 19 35 351 343 343 9 20 18 6 8 6 359 1 353 357 14 341 307 303 302 313 315 298 267 226 199 216 216 215 210 213 206 216 206 221 207 211 192 170 150 152
86 76 68 82 54 nan 26 12 14 16 5 351 7 6 13 15 15 12 8 4 0 1 4 16 14 285 333 334 330 337 325 303 237 175 196 227 220 219 222 218 209 211 209 213 214 197 176 155 154
78 62 60 27 59 nan 14 14 357 352 10 347 356 19 15 16 15 11 12 10 10 19 13 30 38 78 56 22 355 359 358 322 209 171 190 220 217 225 227 210 203 215 203 204 216 195 185 168 156
41 64 57 41 nan nan nan nan nan 334 340 18 28 5 5 359 358 5 13 21 25 27 28 33 42 71 126 65 49 11 6 329 258 217 211 215 200 206 210 217 212 216 206 199 207 204 182 177 160
nan nan nan nan nan nan nan nan nan 316 338 10 339 351 358 350 353 0 8 22 27 26 29 35 37 41 83 116 76 56 4 235 227 213 202 214 202 204 206 220 232 219 205 200 203 202 185 181 194
nan nan nan nan nan nan nan nan 331 325 351 355 348 351 351 358 356 0 6 14 23 25 29 31 36 39 44 70 86 112 169 223 223 252 209 216 209 202 208 209 217 222 222 208 206 205 205 206 198
nan nan nan nan nan nan nan nan 329 346 357 357 349 350 349 355 2 358 7 9 15 24 27 27 31 34 45 49 55 48 13 239 236 251 243 235 215 205 213 217 213 223 228 226 211 209 211 211 201
nan nan nan nan nan nan nan nan nan 334 340 343 352 348 356 355 2 5 6 4 11 20 26 27 28 30 43 39 47 48 61 110 25 309 261 261 257 245 218 215 216 217 224 230 218 219 210 213 212
nan nan nan nan nan nan nan nan nan 343 341 343 345 3 359 1 360 360 5 9 7 13 23 24 30 29 29 39 41 42 49 65 133 48 32 297 278 240 264 232 209 220 227 227 229 223 230 221 236
nan nan nan nan nan nan nan nan nan 351 345 346 353 nan 5 357 2 359 360 3 12 16 15 17 20 28 30 33 33 36 38 36 23 17 351 342 340 318 234 227 220 213 222 223 226 223 231 234 237
nan nan nan nan nan nan nan nan nan 342 353 353 356 355 2 13 1 357 354 354 12 12 18 10 10 14 22 27 32 32 30 21 22 4 318 334 337 337 21 203 211 219 225 232 230 226 219 234 249
nan nan nan nan nan nan nan nan nan nan 354 354 358 357 1 5 11 1 354 346 350 352 1 15 7 6 10 10 21 22 19 26 25 17 8 353 347 332 338 332 240 223 220 221 220 218 231 234 239
nan nan nan nan nan nan nan nan nan nan nan 355 358 357 357 1 6 4 349 338 327 330 335 356 348 357 3 11 5 359 1 8 352 7 19 358 350 343 338 315 292 281 235 232 225 227 224 234 233
nan nan nan nan nan nan nan nan nan nan 308 328 351 355 357 359 358 359 356 344 326 307 312 324 324 331 327 327 325 325 347 340 347 340 351 4 1 356 345 332 324 291 268 257 241 240 240 233 232
nan nan nan nan nan nan nan nan nan nan 328 332 353 350 354 347 345 351 349 348 342 338 327 322 320 319 318 314 297 286 309 308 304 317 327 331 334 341 346 343 336 323 288 260 256 255 245 243 246
nan nan nan nan nan nan nan nan nan 288 309 306 341 342 332 331 333 343 344 347 343 342 339 336 335 328 315 305 289 285 284 273 286 287 297 319 326 322 341 331 335 336 326 320 266 261 253 244 247
nan nan nan nan nan nan nan nan nan 318 296 299 321 326 333 330 327 345 346 339 338 343 345 331 324 311 301 300 302 299 294 301 291 292 278 285 306 314 326 335 330 331 328 332 303 258 255 258 257
nan nan nan nan nan nan nan nan nan nan 292 304 312 320 333 332 332 336 344 327 320 319 318 321 313 313 310 309 301 298 301 294 287 282 290 289 277 291 308 327 313 313 317 332 316 290 261 264 260
nan nan nan nan nan nan nan nan nan nan 316 298 311 324 327 327 331 328 323 318 309 313 312 309 310 312 312 312 311 310 307 301 295 288 279 278 263 276 289 297 301 307 310 306 308 278 273 269 261
nan nan nan nan nan nan nan nan nan nan nan 314 314 315 313 319 327 322 323 323 312 312 313 314 313 314 311 311 309 310 308 305 306 302 294 286 277 269 276 274 280 282 287 280 282 280 259 260 263
nan nan nan nan nan nan nan nan nan nan nan 298 302 302 301 315 321 328 329 320 314 312 310 308 309 308 307 305 305 303 302 296 293 291 292 294 295 283 266 267 261 266 260 266 259 253 253 252 250
nan nan nan nan nan nan nan nan nan 278 269 270 284 295 304 310 313 326 324 313 314 315 314 298 299 306 301 301 299 298 296 296 293 294 293 294 292 289 280 265 256 258 266 269 248 241 248 244 237
nan nan nan nan nan nan nan nan nan nan nan nan 292 295 291 292 296 309 310 310 314 314 309 298 288 277 275 284 288 291 293 293 293 290 290 290 291 291 282 270 258 246 247 252 255 249 241 239 228
nan nan nan nan nan nan nan nan nan nan nan nan nan nan nan nan nan 309 314 316 314 306 296 293 295 294 291 291 291 287 283 282 282 282 282 284 283 284 282 273 256 251 241 240 247 257 231 232 226
nan nan nan nan nan nan nan nan nan nan nan nan nan nan nan nan nan 303 306 309 301 298 297 296 292 289 295 293 290 287 285 282 282 284 283 282 281 279 278 270 252 243 246 243 235 234 223 231 229